Meteo Giornale » Osservazioni meteo Gabon » Libreville
ore: 22:00 - Osservazioni Meteo Libreville
Lat. 0° 27' N Lon. 9° 25' E Alt. 12 metri s.l.m.
26 °C
Nuvoloso
Temp. 24 Ore
25 °C
29 °C
Sud/Sud-Ovest
7.4 Km/h
Dew point 23 °C
Umidità 83 %
Visibilità 10 Km
Il sole sorge alle ore 06:18
Il sole tramonta alle ore 18:26
| Data e Ora | Cielo e Fenomeni | T °C | DP °C | Um. % | Pres. hPa | Vis. km | Vento km/h | |
|---|---|---|---|---|---|---|---|---|
| Oggi h: 22:00 | Nuvoloso | 26 | 23 | 83 | 1013 | 10 | S/SO 7.4 | |
| Oggi h: 20:00 | Nuvoloso | 26 | 23 | 83 | 1012 | 10 | SO 13 | |
| Oggi h: 19:00 | Nuvoloso | 26 | 23 | 83 | 1011 | 10 | SO 13 | |
| Oggi h: 18:00 | Nuvoloso | 26 | 23 | 83 | 1011 | 10 | SO 13 | |
| Oggi h: 17:00 | Nuvoloso | 27 | 22 | 74 | 1012 | 10 | SO 11.1 | |
| Oggi h: 16:00 | Nuvoloso | 27 | 22 | 74 | 1011 | 10 | O/SO 14.8 | |
| Oggi h: 15:00 | Molto Nuvoloso | 28 | 22 | 69 | 1012 | 10 | O/SO 11.1 | |
| Oggi h: 14:00 | Nuvoloso | 29 | 22 | 66 | 1013 | 10 | SO 9.3 | |
| Oggi h: 13:00 | Molto Nuvoloso | 27 | 22 | 74 | 1014 | 10 | S 11.1 | |
| Oggi h: 12:00 | Molto Nuvoloso | 27 | 22 | 74 | 1015 | 10 | S 11.1 | |
| Oggi h: 11:00 | Molto Nuvoloso | 27 | 22 | 74 | 1015 | 10 | S 14.8 | |
| Oggi h: 10:00 | Molto Nuvoloso | 27 | 22 | 74 | 1015 | 10 | S 11.1 | |
| Oggi h: 09:00 | Molto Nuvoloso | 25 | 22 | 83 | 1015 | 10 | S 11.1 | |
| Oggi h: 08:00 | Molto Nuvoloso | 25 | 22 | 83 | 1014 | 10 | S 11.1 | |
| Oggi h: 07:00 | Nuvoloso | 26 | 22 | 78 | 1014 | 10 | S 13 | |
| Oggi h: 06:00 | Nuvoloso | 26 | 22 | 78 | 1014 | 10 | S 13 | |
| Oggi h: 05:00 | Nuvoloso | 26 | 22 | 78 | 1014 | 10 | S 13 | |
| Oggi h: 04:00 | Nuvoloso | 26 | 22 | 78 | 1014 | 10 | S 13 | |
| Oggi h: 03:00 | Nuvoloso | 26 | 22 | 78 | 1014 | 10 | S 13 | |
| Oggi h: 02:00 | Nuvoloso | 26 | 22 | 78 | 1014 | 10 | S/SO 11.1 | |
| Oggi h: 01:00 | Poco Nuvoloso | 26 | 22 | 78 | 1015 | 10 | S/SO 9.3 | |
| Oggi h: 00:00 | Poco Nuvoloso | 26 | 22 | 78 | 1015 | 10 | S/SO 9.3 | |



